Data start date =,1/1/1959
Data end date/time =,5/3/2024 12:00
""
""
Date/Time,LockDam_05a
,Flow
UTC,cfs
,Ave
1/2/1959 12:00,10000
1/3/1959 12:00,10000
1/4/1959 12:00,10000
1/5/1959 12:00,10000
1/6/1959 12:00,10000
1/7/1959 12:00,9900
1/8/1959 12:00,9800
1/9/1959 12:00,9800
1/10/1959 12:00,9800
1/11/1959 12:00,9800
1/12/1959 12:00,9800
1/13/1959 12:00,9500
1/14/1959 12:00,9000
1/15/1959 12:00,8500
1/16/1959 12:00,8500
1/17/1959 12:00,8500
1/18/1959 12:00,8500
1/19/1959 12:00,8500
1/20/1959 12:00,8600
1/21/1959 12:00,8700
1/22/1959 12:00,8800
1/23/1959 12:00,8800
1/24/1959 12:00,8800
1/25/1959 12:00,8800
1/26/1959 12:00,8800
1/27/1959 12:00,8600
1/28/1959 12:00,8600
1/29/1959 12:00,8600
1/30/1959 12:00,8600
1/31/1959 12:00,8600
2/1/1959 12:00,8700
2/2/1959 12:00,8700
2/3/1959 12:00,8700
2/4/1959 12:00,8600
2/5/1959 12:00,8600
2/6/1959 12:00,8500
2/7/1959 12:00,8500
2/8/1959 12:00,8500
2/9/1959 12:00,8600
2/10/1959 12:00,8600
2/11/1959 12:00,8700
2/12/1959 12:00,8600
2/13/1959 12:00,8800
2/14/1959 12:00,8800
2/15/1959 12:00,8800
2/16/1959 12:00,8800
2/17/1959 12:00,9100
2/18/1959 12:00,9500
2/19/1959 12:00,9300
2/20/1959 12:00,9000
2/21/1959 12:00,9100
2/22/1959 12:00,9100
2/23/1959 12:00,9100
2/24/1959 12:00,9100
2/25/1959 12:00,9100
2/26/1959 12:00,9100
2/27/1959 12:00,9100
2/28/1959 12:00,9100
3/1/1959 12:00,9100
3/2/1959 12:00,10200
3/3/1959 12:00,9800
3/4/1959 12:00,9500
3/5/1959 12:00,9500
3/6/1959 12:00,10100
3/7/1959 12:00,10100
3/8/1959 12:00,10100
3/9/1959 12:00,10000
3/10/1959 12:00,9700
3/11/1959 12:00,9700
3/12/1959 12:00,10000
3/13/1959 12:00,12000
3/14/1959 12:00,12600
3/15/1959 12:00,12400
3/16/1959 12:00,12400
3/17/1959 12:00,12300
3/18/1959 12:00,12100
3/19/1959 12:00,14300
3/20/1959 12:00,18600
3/21/1959 12:00,20800
3/22/1959 12:00,20500
3/23/1959 12:00,21700
3/24/1959 12:00,22700
3/25/1959 12:00,29200
3/26/1959 12:00,26800
3/27/1959 12:00,20300
3/28/1959 12:00,19300
3/29/1959 12:00,20900
3/30/1959 12:00,21600
3/31/1959 12:00,23600
4/1/1959 12:00,23000
4/2/1959 12:00,29700
4/3/1959 12:00,25000
4/4/1959 12:00,19500
4/5/1959 12:00,17300
4/6/1959 12:00,16700
4/7/1959 12:00,15200
4/8/1959 12:00,15800
4/9/1959 12:00,15900
4/10/1959 12:00,16000
4/11/1959 12:00,16200
4/12/1959 12:00,16300
4/13/1959 12:00,16300
4/14/1959 12:00,13900
4/15/1959 12:00,14000
4/16/1959 12:00,13700
4/17/1959 12:00,15300
4/18/1959 12:00,14800
4/19/1959 12:00,15500
4/20/1959 12:00,18600
4/21/1959 12:00,23100
4/22/1959 12:00,19800
4/23/1959 12:00,18900
4/24/1959 12:00,18000
4/25/1959 12:00,17000
4/26/1959 12:00,15000
4/27/1959 12:00,14200
4/28/1959 12:00,14700
4/29/1959 12:00,14500
4/30/1959 12:00,14300
5/1/1959 12:00,14000
5/2/1959 12:00,13000
5/3/1959 12:00,12400
5/4/1959 12:00,11800
5/5/1959 12:00,12700
5/6/1959 12:00,24300
5/7/1959 12:00,32800
5/8/1959 12:00,38800
5/9/1959 12:00,37600
5/10/1959 12:00,36100
5/11/1959 12:00,39400
5/12/1959 12:00,37600
5/13/1959 12:00,33300
5/14/1959 12:00,33900
5/15/1959 12:00,32800
5/16/1959 12:00,30800
5/17/1959 12:00,29000
5/18/1959 12:00,24500
5/19/1959 12:00,22000
5/20/1959 12:00,23700
5/21/1959 12:00,26400
5/22/1959 12:00,22800
5/23/1959 12:00,18800
5/24/1959 12:00,18100
5/25/1959 12:00,17100
5/26/1959 12:00,19200
5/27/1959 12:00,23500
5/28/1959 12:00,26900
5/29/1959 12:00,32600
5/30/1959 12:00,35600
5/31/1959 12:00,34300
6/1/1959 12:00,29600
6/2/1959 12:00,29400
6/3/1959 12:00,30300
6/4/1959 12:00,35800
6/5/1959 12:00,38500
6/6/1959 12:00,39500
6/7/1959 12:00,40300
6/8/1959 12:00,39800
6/9/1959 12:00,35700
6/10/1959 12:00,35100
6/11/1959 12:00,34500
6/12/1959 12:00,33300
6/13/1959 12:00,29100
6/14/1959 12:00,18600
6/15/1959 12:00,14400
6/16/1959 12:00,18300
6/17/1959 12:00,17900
6/18/1959 12:00,16300
6/19/1959 12:00,14200
6/20/1959 12:00,13000
6/21/1959 12:00,13100
6/22/1959 12:00,13100
6/23/1959 12:00,11800
6/24/1959 12:00,11900
6/25/1959 12:00,12500
6/26/1959 12:00,20100
6/27/1959 12:00,23900
6/28/1959 12:00,20100
6/29/1959 12:00,24800
6/30/1959 12:00,21900
7/1/1959 12:00,21400
7/2/1959 12:00,21700
7/3/1959 12:00,20600
7/4/1959 12:00,19500
7/5/1959 12:00,18200
7/6/1959 12:00,15900
7/7/1959 12:00,15500
7/8/1959 12:00,16600
7/9/1959 12:00,30300
7/10/1959 12:00,41700
7/11/1959 12:00,37700
7/12/1959 12:00,39100
7/13/1959 12:00,41900
7/14/1959 12:00,37700
7/15/1959 12:00,33600
7/16/1959 12:00,26200
7/17/1959 12:00,17600
7/18/1959 12:00,18700
7/19/1959 12:00,20100
7/20/1959 12:00,18300
7/21/1959 12:00,17100
7/22/1959 12:00,15200
7/23/1959 12:00,15200
7/24/1959 12:00,14600
7/25/1959 12:00,13400
7/26/1959 12:00,12900
7/27/1959 12:00,12300
7/28/1959 12:00,12300
7/29/1959 12:00,11000
7/30/1959 12:00,9600
7/31/1959 12:00,9600
8/1/1959 12:00,8600
8/2/1959 12:00,8800
8/3/1959 12:00,9200
8/4/1959 12:00,9300
8/5/1959 12:00,9200
8/6/1959 12:00,9100
8/7/1959 12:00,9200
8/8/1959 12:00,8800
8/9/1959 12:00,8700
8/10/1959 12:00,7800
8/11/1959 12:00,7800
8/12/1959 12:00,7800
8/13/1959 12:00,7800
8/14/1959 12:00,9200
8/15/1959 12:00,10900
8/16/1959 12:00,11800
8/17/1959 12:00,12900
8/18/1959 12:00,11100
8/19/1959 12:00,10200
8/20/1959 12:00,9800
8/21/1959 12:00,12200
8/22/1959 12:00,15000
8/23/1959 12:00,25800
8/24/1959 12:00,25700
8/25/1959 12:00,21000
8/26/1959 12:00,21800
8/27/1959 12:00,23000
8/28/1959 12:00,23000
8/29/1959 12:00,22800
8/30/1959 12:00,29000
8/31/1959 12:00,29200
9/1/1959 12:00,33600
9/2/1959 12:00,41700
9/3/1959 12:00,35800
9/4/1959 12:00,29100
9/5/1959 12:00,27700
9/6/1959 12:00,26100
9/7/1959 12:00,24500
9/8/1959 12:00,24200
9/9/1959 12:00,25000
9/10/1959 12:00,25700
9/11/1959 12:00,25000
9/12/1959 12:00,21800
9/13/1959 12:00,21600
9/14/1959 12:00,22000
9/15/1959 12:00,19500
9/16/1959 12:00,17900
9/17/1959 12:00,15100
9/18/1959 12:00,15600
9/19/1959 12:00,14400
9/20/1959 12:00,14200
9/21/1959 12:00,15100
9/22/1959 12:00,21400
9/23/1959 12:00,35700
9/24/1959 12:00,39900
9/25/1959 12:00,35000
9/26/1959 12:00,35300
9/27/1959 12:00,36900
9/28/1959 12:00,37300
9/29/1959 12:00,39300
9/30/1959 12:00,38000
10/1/1959 12:00,36700
10/2/1959 12:00,37200
10/3/1959 12:00,35100
10/4/1959 12:00,33100
10/5/1959 12:00,27800
10/6/1959 12:00,30400
10/7/1959 12:00,30500
10/8/1959 12:00,29000
10/9/1959 12:00,24500
10/10/1959 12:00,24400
10/11/1959 12:00,24000
10/12/1959 12:00,24100
10/13/1959 12:00,21400
10/14/1959 12:00,20400
10/15/1959 12:00,20100
10/16/1959 12:00,20400
10/17/1959 12:00,20500
10/18/1959 12:00,20300
10/19/1959 12:00,18300
10/20/1959 12:00,18100
10/21/1959 12:00,17400
10/22/1959 12:00,17500
10/23/1959 12:00,18500
10/24/1959 12:00,20300
10/25/1959 12:00,23200
10/26/1959 12:00,27800
10/27/1959 12:00,26800
10/28/1959 12:00,26400
10/29/1959 12:00,24300
10/30/1959 12:00,24100
10/31/1959 12:00,24300
11/1/1959 12:00,22900
11/2/1959 12:00,22200
11/3/1959 12:00,20000
11/4/1959 12:00,24000
11/5/1959 12:00,24900
11/6/1959 12:00,25600
11/7/1959 12:00,23500
11/8/1959 12:00,20500
11/9/1959 12:00,17100
11/10/1959 12:00,18000
11/11/1959 12:00,17800
11/12/1959 12:00,20700
11/13/1959 12:00,20500
11/14/1959 12:00,16000
11/15/1959 12:00,14100
11/16/1959 12:00,12400
11/17/1959 12:00,11500
11/18/1959 12:00,10800
11/19/1959 12:00,10800
11/20/1959 12:00,10900
11/21/1959 12:00,12000
11/22/1959 12:00,15300
11/23/1959 12:00,18800
11/24/1959 12:00,19900
11/25/1959 12:00,19700
11/26/1959 12:00,15800
11/27/1959 12:00,15600
11/28/1959 12:00,15400
11/29/1959 12:00,14900
11/30/1959 12:00,14600
12/1/1959 12:00,14000
12/2/1959 12:00,14000
12/3/1959 12:00,14200
12/4/1959 12:00,14400
12/5/1959 12:00,14400
12/6/1959 12:00,14500
12/7/1959 12:00,15200
12/8/1959 12:00,14000
12/9/1959 12:00,14000
12/10/1959 12:00,13600
12/11/1959 12:00,12000
12/12/1959 12:00,12500
12/13/1959 12:00,12500
12/14/1959 12:00,12400
12/15/1959 12:00,12600
12/16/1959 12:00,13400
12/17/1959 12:00,14100
12/18/1959 12:00,15200
12/19/1959 12:00,15000
12/20/1959 12:00,15200
12/21/1959 12:00,13200
12/22/1959 12:00,13000
12/23/1959 12:00,13000
12/24/1959 12:00,12800
12/25/1959 12:00,12700
12/26/1959 12:00,12900
12/27/1959 12:00,15500
12/28/1959 12:00,25000
12/29/1959 12:00,29400
12/30/1959 12:00,34200
12/31/1959 12:00,32400
1/1/1960 12:00,30900
1/2/1960 12:00,31600
1/3/1960 12:00,20000
1/4/1960 12:00,20900
1/5/1960 12:00,14300
1/6/1960 12:00,13400
1/7/1960 12:00,16900
1/8/1960 12:00,17800
1/9/1960 12:00,17500
1/10/1960 12:00,17300
1/11/1960 12:00,16700
1/12/1960 12:00,16900
1/13/1960 12:00,17600
1/14/1960 12:00,18600
1/15/1960 12:00,20000
1/16/1960 12:00,18600
1/17/1960 12:00,18000
1/18/1960 12:00,15400
1/19/1960 12:00,14000
1/20/1960 12:00,15000
1/21/1960 12:00,14500
1/22/1960 12:00,14400
1/23/1960 12:00,13800
1/24/1960 12:00,13100
1/25/1960 12:00,12400
1/26/1960 12:00,12400
1/27/1960 12:00,12500
1/28/1960 12:00,12700
1/29/1960 12:00,13600
1/30/1960 12:00,13400
1/31/1960 12:00,13300
2/1/1960 12:00,13300
2/2/1960 12:00,10700
2/3/1960 12:00,11500
2/4/1960 12:00,11800
2/5/1960 12:00,13600
2/6/1960 12:00,13400
2/7/1960 12:00,13300
2/8/1960 12:00,13400
2/9/1960 12:00,13300
2/10/1960 12:00,13100
2/11/1960 12:00,12400
2/12/1960 12:00,12000
2/13/1960 12:00,12200
2/14/1960 12:00,12200
2/15/1960 12:00,12200
2/16/1960 12:00,9200
2/17/1960 12:00,10400
2/18/1960 12:00,12200
2/19/1960 12:00,11600
2/20/1960 12:00,11700
2/21/1960 12:00,11700
2/22/1960 12:00,11700
2/23/1960 12:00,11700
2/24/1960 12:00,11600
2/25/1960 12:00,11600
2/26/1960 12:00,11600
2/27/1960 12:00,11700
2/28/1960 12:00,12500
2/29/1960 12:00,12100
3/1/1960 12:00,13600
3/2/1960 12:00,12300
3/3/1960 12:00,12200
3/4/1960 12:00,12200
3/5/1960 12:00,12000
3/6/1960 12:00,11900
3/7/1960 12:00,11900
3/8/1960 12:00,11800
3/9/1960 12:00,11400
3/10/1960 12:00,11500
3/11/1960 12:00,11600
3/12/1960 12:00,11700
3/13/1960 12:00,12800
3/14/1960 12:00,12900
3/15/1960 12:00,12900
3/16/1960 12:00,12700
3/17/1960 12:00,12700
3/18/1960 12:00,12600
3/19/1960 12:00,12600
3/20/1960 12:00,12700
3/21/1960 12:00,13300
3/22/1960 12:00,12100
3/23/1960 12:00,12500
3/24/1960 12:00,12300
3/25/1960 12:00,12300
3/26/1960 12:00,13100
3/27/1960 12:00,22500
3/28/1960 12:00,32000
3/29/1960 12:00,34400
3/30/1960 12:00,31300
3/31/1960 12:00,39600
4/1/1960 12:00,40100
4/2/1960 12:00,43900
4/3/1960 12:00,47000
4/4/1960 12:00,47000
4/5/1960 12:00,49300
4/6/1960 12:00,51300
4/7/1960 12:00,53000
4/8/1960 12:00,55500
4/9/1960 12:00,55600
4/10/1960 12:00,56600
4/11/1960 12:00,58000
4/12/1960 12:00,58500
4/13/1960 12:00,59500
4/14/1960 12:00,61000
4/15/1960 12:00,62000
4/16/1960 12:00,61500
4/17/1960 12:00,61500
4/18/1960 12:00,60700
4/19/1960 12:00,58000
4/20/1960 12:00,62000
4/21/1960 12:00,61300
4/22/1960 12:00,59000
4/23/1960 12:00,58700
4/24/1960 12:00,57300
4/25/1960 12:00,56500
4/26/1960 12:00,57700
4/27/1960 12:00,60000
4/28/1960 12:00,63200
4/29/1960 12:00,65200
4/30/1960 12:00,66000
5/1/1960 12:00,65900
5/2/1960 12:00,65500
5/3/1960 12:00,64300
5/4/1960 12:00,63000
5/5/1960 12:00,63400
5/6/1960 12:00,64000
5/7/1960 12:00,62000
5/8/1960 12:00,61500
5/9/1960 12:00,62400
5/10/1960 12:00,62700
5/11/1960 12:00,62700
5/12/1960 12:00,60700
5/13/1960 12:00,58700
5/14/1960 12:00,55000
5/15/1960 12:00,51500
5/16/1960 12:00,46800
5/17/1960 12:00,48000
5/18/1960 12:00,46400
5/19/1960 12:00,44600
5/20/1960 12:00,44700
5/21/1960 12:00,49500
5/22/1960 12:00,56500
5/23/1960 12:00,59000
5/24/1960 12:00,63200
5/25/1960 12:00,63200
5/26/1960 12:00,64500
5/27/1960 12:00,66500
5/28/1960 12:00,66500
5/29/1960 12:00,67200
5/30/1960 12:00,67700
5/31/1960 12:00,68800
6/1/1960 12:00,70000
6/2/1960 12:00,70200
6/3/1960 12:00,70000
6/4/1960 12:00,68000
6/5/1960 12:00,66000
6/6/1960 12:00,62500
6/7/1960 12:00,59500
6/8/1960 12:00,56500
6/9/1960 12:00,53200
6/10/1960 12:00,46300
6/11/1960 12:00,44000
6/12/1960 12:00,39400
6/13/1960 12:00,36200
6/14/1960 12:00,32000
6/15/1960 12:00,29800
6/16/1960 12:00,33600
6/17/1960 12:00,34600
6/18/1960 12:00,29000
6/19/1960 12:00,26300
6/20/1960 12:00,26700
6/21/1960 12:00,22800
6/22/1960 12:00,24400
6/23/1960 12:00,29100
6/24/1960 12:00,28500
6/25/1960 12:00,28000
6/26/1960 12:00,28800
6/27/1960 12:00,31500
6/28/1960 12:00,37000
6/29/1960 12:00,35900
6/30/1960 12:00,32900
7/1/1960 12:00,28800
7/2/1960 12:00,28500
7/3/1960 12:00,31400
7/4/1960 12:00,31100
7/5/1960 12:00,30500
7/6/1960 12:00,25300
7/7/1960 12:00,20200
7/8/1960 12:00,22100
7/9/1960 12:00,22000
7/10/1960 12:00,19500
7/11/1960 12:00,17800
7/12/1960 12:00,16900
7/13/1960 12:00,17100
7/14/1960 12:00,17000
7/15/1960 12:00,17700
7/16/1960 12:00,17600
7/17/1960 12:00,17600
7/18/1960 12:00,18400
7/19/1960 12:00,18400
7/20/1960 12:00,18500
7/21/1960 12:00,18400
7/22/1960 12:00,15400
7/23/1960 12:00,12300
7/24/1960 12:00,10800
7/25/1960 12:00,9200
7/26/1960 12:00,12000
7/27/1960 12:00,14000
7/28/1960 12:00,14300
7/29/1960 12:00,12500
7/30/1960 12:00,12500
7/31/1960 12:00,12500
8/1/1960 12:00,9200
8/2/1960 12:00,7500
8/3/1960 12:00,8900
8/4/1960 12:00,9000
8/5/1960 12:00,8900
8/6/1960 12:00,9200
8/7/1960 12:00,9800
8/8/1960 12:00,9700
8/9/1960 12:00,9700
8/10/1960 12:00,9700
8/11/1960 12:00,9600
8/12/1960 12:00,9600
8/13/1960 12:00,9700
8/14/1960 12:00,9800
8/15/1960 12:00,9700
8/16/1960 12:00,8300
8/17/1960 12:00,8300
8/18/1960 12:00,8300
8/19/1960 12:00,8400
8/20/1960 12:00,8300
8/21/1960 12:00,8300
8/22/1960 12:00,8300
8/23/1960 12:00,8400
8/24/1960 12:00,8300
8/25/1960 12:00,8700
8/26/1960 12:00,9600
8/27/1960 12:00,9600
8/28/1960 12:00,19400
8/29/1960 12:00,31000
8/30/1960 12:00,35100
8/31/1960 12:00,39100
9/1/1960 12:00,38400
9/2/1960 12:00,40200
9/3/1960 12:00,41000
9/4/1960 12:00,37400
9/5/1960 12:00,34600
9/6/1960 12:00,30100
9/7/1960 12:00,27700
9/8/1960 12:00,30300
9/9/1960 12:00,31000
9/10/1960 12:00,28600
9/11/1960 12:00,29100
9/12/1960 12:00,27500
9/13/1960 12:00,22500
9/14/1960 12:00,20600
9/15/1960 12:00,17900
9/16/1960 12:00,17100
9/17/1960 12:00,18000
9/18/1960 12:00,19000
9/19/1960 12:00,17200
9/20/1960 12:00,15200
9/21/1960 12:00,14600
9/22/1960 12:00,14400
9/23/1960 12:00,14800
9/24/1960 12:00,18800
9/25/1960 12:00,19200
9/26/1960 12:00,16500
9/27/1960 12:00,16600
9/28/1960 12:00,20300
9/29/1960 12:00,19600
9/30/1960 12:00,19300
10/1/1960 12:00,18700
10/2/1960 12:00,18300
10/3/1960 12:00,17900
10/4/1960 12:00,16200
10/5/1960 12:00,12600
10/6/1960 12:00,12500
10/7/1960 12:00,12400
10/8/1960 12:00,12500
10/9/1960 12:00,13300
10/10/1960 12:00,13700
10/11/1960 12:00,11300
10/12/1960 12:00,10600
10/13/1960 12:00,10700
10/14/1960 12:00,11200
10/15/1960 12:00,10900
10/16/1960 12:00,11000
10/17/1960 12:00,11000
10/18/1960 12:00,11500
10/19/1960 12:00,11400
10/20/1960 12:00,10900
10/21/1960 12:00,11000
10/22/1960 12:00,11000
10/23/1960 12:00,11100
10/24/1960 12:00,9200
10/25/1960 12:00,9100
10/26/1960 12:00,9000
10/27/1960 12:00,9000
10/28/1960 12:00,9000
10/29/1960 12:00,8900
10/30/1960 12:00,9900
10/31/1960 12:00,10800
11/1/1960 12:00,13700
11/2/1960 12:00,16400
11/3/1960 12:00,21500
11/4/1960 12:00,25000
11/5/1960 12:00,25000
11/6/1960 12:00,23300
11/7/1960 12:00,19500
11/8/1960 12:00,19500
11/9/1960 12:00,19200
11/10/1960 12:00,16000
11/11/1960 12:00,16100
11/12/1960 12:00,15000
11/13/1960 12:00,14900
11/14/1960 12:00,15000
11/15/1960 12:00,14500
11/16/1960 12:00,14600
11/17/1960 12:00,14300
11/18/1960 12:00,14000
11/19/1960 12:00,14200
11/20/1960 12:00,14200
11/21/1960 12:00,14500
11/22/1960 12:00,15200
11/23/1960 12:00,15100
11/24/1960 12:00,15300
11/25/1960 12:00,13800
11/26/1960 12:00,12800
11/27/1960 12:00,12800
11/28/1960 12:00,15000
11/29/1960 12:00,16500
11/30/1960 12:00,15400
12/1/1960 12:00,15300
12/2/1960 12:00,14000
12/3/1960 12:00,14100
12/4/1960 12:00,14800
12/5/1960 12:00,15900
12/6/1960 12:00,15700
12/7/1960 12:00,15600
12/8/1960 12:00,15100
12/9/1960 12:00,14500
12/10/1960 12:00,9700
12/11/1960 12:00,6000
12/12/1960 12:00,6100
12/13/1960 12:00,12000
12/14/1960 12:00,17200
12/15/1960 12:00,17600
12/16/1960 12:00,18500
12/17/1960 12:00,18500
12/18/1960 12:00,18700
12/19/1960 12:00,18700
12/20/1960 12:00,18200
12/21/1960 12:00,13900
12/22/1960 12:00,13200
12/23/1960 12:00,11700
12/24/1960 12:00,11500
12/25/1960 12:00,11500
12/26/1960 12:00,11400
12/27/1960 12:00,9700
12/28/1960 12:00,8600
12/29/1960 12:00,8500
12/30/1960 12:00,8400
12/31/1960 12:00,8400
1/1/1961 12:00,8400
1/2/1961 12:00,8400
1/3/1961 12:00,8400
1/4/1961 12:00,8500
1/5/1961 12:00,8600
1/6/1961 12:00,9300
1/7/1961 12:00,11000
1/8/1961 12:00,10800
1/9/1961 12:00,10700
1/10/1961 12:00,10500
1/11/1961 12:00,10400
1/12/1961 12:00,10400
1/13/1961 12:00,10400
1/14/1961 12:00,10500
1/15/1961 12:00,10600
1/16/1961 12:00,10800
1/17/1961 12:00,11000
1/18/1961 12:00,10900
1/19/1961 12:00,10900
1/20/1961 12:00,10800
1/21/1961 12:00,10800
1/22/1961 12:00,10800
1/23/1961 12:00,10700
1/24/1961 12:00,9700
1/25/1961 12:00,9200
1/26/1961 12:00,8800
1/27/1961 12:00,8200
1/28/1961 12:00,8200
1/29/1961 12:00,8200
1/30/1961 12:00,8200
1/31/1961 12:00,7800
2/1/1961 12:00,7400
2/2/1961 12:00,7400
2/3/1961 12:00,7300
2/4/1961 12:00,7300
2/5/1961 12:00,7300
2/6/1961 12:00,7400
2/7/1961 12:00,8700
2/8/1961 12:00,8800
2/9/1961 12:00,8800
2/10/1961 12:00,8800
2/11/1961 12:00,8800
2/12/1961 12:00,8800
2/13/1961 12:00,8900
2/14/1961 12:00,8700
2/15/1961 12:00,8700
2/16/1961 12:00,8700
2/17/1961 12:00,8600
2/18/1961 12:00,8600
2/19/1961 12:00,8600
2/20/1961 12:00,9600
2/21/1961 12:00,10800
2/22/1961 12:00,10800
2/23/1961 12:00,11200
2/24/1961 12:00,11500
2/25/1961 12:00,12000
2/26/1961 12:00,12600
2/27/1961 12:00,12700
2/28/1961 12:00,12500
3/1/1961 12:00,12500
3/2/1961 12:00,16000
3/3/1961 12:00,20800
3/4/1961 12:00,22600
3/5/1961 12:00,22700
3/6/1961 12:00,20800
3/7/1961 12:00,16600
3/8/1961 12:00,16200
3/9/1961 12:00,16000
3/10/1961 12:00,16000
3/11/1961 12:00,17500
3/12/1961 12:00,17500
3/13/1961 12:00,15800
3/14/1961 12:00,15300
3/15/1961 12:00,14500
3/16/1961 12:00,14400
3/17/1961 12:00,15300
3/18/1961 12:00,16300
3/19/1961 12:00,18700
3/20/1961 12:00,21500
3/21/1961 12:00,21500
3/22/1961 12:00,26900
3/23/1961 12:00,26700
3/24/1961 12:00,33000
3/25/1961 12:00,49700
3/26/1961 12:00,60500
3/27/1961 12:00,62000
3/28/1961 12:00,59200
3/29/1961 12:00,51900
3/30/1961 12:00,53500
3/31/1961 12:00,58300
4/1/1961 12:00,58000
4/2/1961 12:00,51000
4/3/1961 12:00,50000
4/4/1961 12:00,48400
4/5/1961 12:00,47100
4/6/1961 12:00,44900
4/7/1961 12:00,40100
4/8/1961 12:00,37000
4/9/1961 12:00,34100
4/10/1961 12:00,33900
4/11/1961 12:00,28100
4/12/1961 12:00,26700
4/13/1961 12:00,28600
4/14/1961 12:00,22300
4/15/1961 12:00,23000
4/16/1961 12:00,24700
4/17/1961 12:00,32700
4/18/1961 12:00,32900
4/19/1961 12:00,33000
4/20/1961 12:00,39100
4/21/1961 12:00,42200
4/22/1961 12:00,42000
4/23/1961 12:00,42700
4/24/1961 12:00,46800
4/25/1961 12:00,47900
4/26/1961 12:00,48800
4/27/1961 12:00,48800
4/28/1961 12:00,47800
4/29/1961 12:00,46500
4/30/1961 12:00,44900
5/1/1961 12:00,38500
5/2/1961 12:00,38500
5/3/1961 12:00,39300
5/4/1961 12:00,34900
5/5/1961 12:00,29100
5/6/1961 12:00,30000
5/7/1961 12:00,30500
5/8/1961 12:00,30900
5/9/1961 12:00,29300
5/10/1961 12:00,31300
5/11/1961 12:00,33500
5/12/1961 12:00,34800
5/13/1961 12:00,35100
5/14/1961 12:00,33200
5/15/1961 12:00,40200
5/16/1961 12:00,41800
5/17/1961 12:00,44600
5/18/1961 12:00,50800
5/19/1961 12:00,56000
5/20/1961 12:00,61500
5/21/1961 12:00,65700
5/22/1961 12:00,68000
5/23/1961 12:00,68200
5/24/1961 12:00,66500
5/25/1961 12:00,64300
5/26/1961 12:00,61800
5/27/1961 12:00,59200
5/28/1961 12:00,55300
5/29/1961 12:00,50000
5/30/1961 12:00,46400
5/31/1961 12:00,43900
6/1/1961 12:00,39800
6/2/1961 12:00,37600
6/3/1961 12:00,34100
6/4/1961 12:00,30700
6/5/1961 12:00,29300
6/6/1961 12:00,26900
6/7/1961 12:00,25000
6/8/1961 12:00,23400
6/9/1961 12:00,20900
6/10/1961 12:00,23600
6/11/1961 12:00,19900
6/12/1961 12:00,20900
6/13/1961 12:00,23600
6/14/1961 12:00,23800
6/15/1961 12:00,21700
6/16/1961 12:00,18200
6/17/1961 12:00,17000
6/18/1961 12:00,16800
6/19/1961 12:00,20000
6/20/1961 12:00,15800
6/21/1961 12:00,16000
6/22/1961 12:00,17700
6/23/1961 12:00,16000
6/24/1961 12:00,15000
6/25/1961 12:00,14900
6/26/1961 12:00,14900
6/27/1961 12:00,14200
6/28/1961 12:00,13700
6/29/1961 12:00,13800
6/30/1961 12:00,13800
7/1/1961 12:00,14500
7/2/1961 12:00,14900
7/3/1961 12:00,14800
7/4/1961 12:00,14800
7/5/1961 12:00,14100
7/6/1961 12:00,12900
7/7/1961 12:00,12300
7/8/1961 12:00,11200
7/9/1961 12:00,11300
7/10/1961 12:00,9500
7/11/1961 12:00,8200
7/12/1961 12:00,8000
7/13/1961 12:00,8100
7/14/1961 12:00,8000
7/15/1961 12:00,8000
7/16/1961 12:00,8000
7/17/1961 12:00,9400
7/18/1961 12:00,10100
7/19/1961 12:00,10200
7/20/1961 12:00,10700
7/21/1961 12:00,11300
7/22/1961 12:00,12000
7/23/1961 12:00,12300
7/24/1961 12:00,12400
7/25/1961 12:00,13100
7/26/1961 12:00,13100
7/27/1961 12:00,13200
7/28/1961 12:00,13300
7/29/1961 12:00,13300
7/30/1961 12:00,13300
7/31/1961 12:00,14600
8/1/1961 12:00,14200
8/2/1961 12:00,13600
8/3/1961 12:00,14200
8/4/1961 12:00,14300
8/5/1961 12:00,14500
8/6/1961 12:00,14200
8/7/1961 12:00,12900
8/8/1961 12:00,13000
8/9/1961 12:00,12400
8/10/1961 12:00,12400
8/11/1961 12:00,12300
8/12/1961 12:00,12300
8/13/1961 12:00,12400
8/14/1961 12:00,10300
8/15/1961 12:00,10300
8/16/1961 12:00,10000
8/17/1961 12:00,8700
8/18/1961 12:00,8500
8/19/1961 12:00,8500
8/20/1961 12:00,8500
8/21/1961 12:00,8500
8/22/1961 12:00,8500
8/23/1961 12:00,8500
8/24/1961 12:00,8500
8/25/1961 12:00,8500
8/26/1961 12:00,8400
8/27/1961 12:00,8400
8/28/1961 12:00,9100
8/29/1961 12:00,9200
8/30/1961 12:00,9200
8/31/1961 12:00,9200
9/1/1961 12:00,8500
9/2/1961 12:00,8600
9/3/1961 12:00,8600
9/4/1961 12:00,7800
9/5/1961 12:00,7800
9/6/1961 12:00,7800
9/7/1961 12:00,7900
9/8/1961 12:00,8500
9/9/1961 12:00,10800
9/10/1961 12:00,12200
9/11/1961 12:00,11800
9/12/1961 12:00,11000
9/13/1961 12:00,12000
9/14/1961 12:00,10600
9/15/1961 12:00,9600
9/16/1961 12:00,9200
9/17/1961 12:00,9200
9/18/1961 12:00,9900
9/19/1961 12:00,9900
9/20/1961 12:00,9400
9/21/1961 12:00,9400
9/22/1961 12:00,11600
9/23/1961 12:00,11200
9/24/1961 12:00,12600
9/25/1961 12:00,10700
9/26/1961 12:00,8700
9/27/1961 12:00,8100
9/28/1961 12:00,8100
9/29/1961 12:00,8700
9/30/1961 12:00,10000
10/1/1961 12:00,10100
10/2/1961 12:00,10000
10/3/1961 12:00,10100
10/4/1961 12:00,10100
10/5/1961 12:00,9600
10/6/1961 12:00,9500
10/7/1961 12:00,8800
10/8/1961 12:00,8900
10/9/1961 12:00,10800
10/10/1961 12:00,10800
10/11/1961 12:00,12700
10/12/1961 12:00,14100
10/13/1961 12:00,14700
10/14/1961 12:00,14600
10/15/1961 12:00,14900
10/16/1961 12:00,10100
10/17/1961 12:00,10400
10/18/1961 12:00,11900
10/19/1961 12:00,13200
10/20/1961 12:00,13100
10/21/1961 12:00,11000
10/22/1961 12:00,10600
10/23/1961 12:00,10500
10/24/1961 12:00,10600
10/25/1961 12:00,10800
10/26/1961 12:00,11400
10/27/1961 12:00,11300
10/28/1961 12:00,10800
10/29/1961 12:00,10800
10/30/1961 12:00,14200
10/31/1961 12:00,15000
11/1/1961 12:00,13500
11/2/1961 12:00,14600
11/3/1961 12:00,16200
11/4/1961 12:00,16000
11/5/1961 12:00,16000
11/6/1961 12:00,18500
11/7/1961 12:00,18900
11/8/1961 12:00,18700
11/9/1961 12:00,19300
11/10/1961 12:00,19300
11/11/1961 12:00,17300
11/12/1961 12:00,16100
11/13/1961 12:00,16100
11/14/1961 12:00,14900
11/15/1961 12:00,15300
11/16/1961 12:00,16500